格洛纳斯-727 COSMOS 1987 [GLONASS]

导读 | 星芒AI

COSMOS 1987 是一颗俄罗斯 GLONASS 卫星,于1987年发射,用于全球导航卫星系统。它是 GLONASS 系统早期部署的一部分,旨在提供高精度的定位和导航服务。该卫星运行在中地球轨道,设计用于支持军事和民用应用。尽管其具体退役时间未广泛公开,COSMOS 1987 在 GLONASS 系统的发展中发挥了重要作用,为后续卫星的部署奠定了基础。

基本信息
目录编号:
19749
目录名称:
COSMOS 1987 (GLONASS)
国际标识:
1989-001A
轨道中心:
EARTH
卫星名称:
格洛纳斯-727
卫星全名:
格洛纳斯-727 COSMOS 1987 [GLONASS]
卫星状态:
在轨 (已飞行13444 天)
发射日期:
1989-01-10 UTC
国别 :
俄罗斯(独联体) (CIS)
星等 :
--
轨道信息
数据来源 国际轨道数据
星历时间: 2025-10-25T21:16:10+0800
6天前
查看轨道信息
半长轴: 25510.315km
偏心率: 0.0004854
轨道倾角: 64.800°
近地点辐角 230.772°
升交点赤经 80.320°
平近点角 306.617°
近地点: 19119.797km
远地点: 19144.563km
周期: 675.824分钟
每日圈数: 2.130733
详细信息
平衡模式:
三轴稳定
覆盖范围:
全球
运营商:
列舍特涅夫卫星信息系统
运营商所在国:
俄罗斯
制造商(研发单位):
列舍特涅夫卫星信息系统
制造商所在国:
俄罗斯
使用方式:
暂无
卫星简介
格洛纳斯(GLONASS )是苏联/俄罗斯研制卫星导航系统。标准配置为24颗卫星,其中18颗卫星就能保证该系统为俄罗斯境内用户提供全部服务。该卫星已退役。
2D轨道图
3D轨道图
轨道高度分析图
轨道倾角分析图
轨道综合分析图
查看轨道综合分析图